Location: Buch
(50.1863°N, 11.0141°E)
Time: 06:15:20
(UTC+00:00)

Cosmos 1758 - Pass Details

Date: 18 January 2020
Orbit: 540 x 562 km, 82.5° (Epoch: 23 February)

Event Time Altitude Azimuth Distance (km) Brightness Sun altitude
Rises 05:11:36 0° 205° (SSW) 2,715 6.7 -18.0°
Reaches altitude 10° 05:13:50 10° 213° (SSW) 1,823 5.8 -17.6°
Maximum altitude 05:17:40 43° 285° (WNW) 780 3.6 -17.0°
Drops below altitude 10° 05:21:31 10° 358° (N) 1,826 5.8 -16.4°
Sets 05:23:46 0° 5° (N) 2,721 6.8 -16.1°
